User: anonymous   Login
Location: Unspecified
(0.0000°N, 0.0000°E)
Time: 06:21:20
(UTC+00:00)
Language:

AMOS 1 - Orbit

View from above orbital plane
View from above orbital plane
View from above satellite
View from above satellite

Ground track
Ground track

The orbit data is extracted from the following two-line orbital elements,

1 23865U 96030B   17080.63468257 -.00000060 +00000-0 +00000-0 0  9996
2 23865 006.9177 054.6988 0006225 137.1851 101.7479 00.97116686075800
Epoch (UTC): 21 March 2017 15:13:56
Eccentricity: 0.0006225
inclination: 6.9177°
perigee height: 36668 km
apogee height: 36721 km
right ascension of ascending node: 54.6988°
argument of perigee: 137.1851°
revolutions per day: 0.97116686
mean anomaly at epoch: 101.7479°
orbit number at epoch: 7580

The dashed part of the orbit path shows where the satellite is in the earth's shadow,  

DLR